sat.trackr.live / text

‹ back to catalog

STARLINK-35146

NORAD 65421 · 2025-192T

PAYLOAD ACTIVE UNKNOWN

§ Identity

Operator
Country
US
Launch date
2025-08-31
Launch site
AFETR
Launch vehicle
Mass (kg)
RCS (m²)

Purposes: comms

External: N2YO · Heavens-Above · Gunter

§ Orbital elements

Epoch: 2026-05-24T18:05:26.173824Z

Period
94.01 min
Inclination
53.1581°
Eccentricity
0.0001052
Mean motion
15.31701687 rev/d
Perigee alt
470.0 km
Apogee alt
471.5 km
Semi-major
6,848.9 km
B*
6.0619e-4
RAAN
238.7800°
Arg perigee
62.6981°
Mean anomaly
297.4128°
Rev number
4,102

§ Raw data

STARLINK-351461 65421U 25192T   26144.75377516  .00018493  00000+0  60619-3 0  99942 65421  53.1581 238.7800 0001052  62.6981 297.4128 15.31701687 41020

JSON: /api/v1/satellites/65421 · /tle

For live sub-satellite position, see the globe view (requires WebGL).

§ Visibility from observer

Set your observer location to see the next 7 days of passes ≥ 10°. The values pass through the URL so the page stays shareable.

No JS? Fill the form by hand. The geolocation button needs JavaScript.